Location: McFarlands Corners
(41.4117°N, 81.3382°W)
Time: 04:28:45
(UTC+00:00)

A-11 Canister half - Pass Details

Date: 22 February 2026
Orbit: 1524 x 1683 km, 47.3° (Epoch: 14 March)

Event Time Altitude Azimuth Distance (km) Brightness Sun altitude
Rises 23:35:36 0° 279° (W) 4,708 13.3 -5.9°
Reaches altitude 10° 23:38:45 10° 283° (WNW) 3,712 12.4 -6.5°
Maximum altitude 23:47:59 61° 3° (N) 1,696 9.2 -8.2°
Enters shadow 23:56:47 12° 83° (E) 3,579 10.2 -9.9°
